| time (UTC) | temp F | wind direction | speed MPH | gust MPH | rain 1hr in | rain 24hr in | rain mn in | humidity % | barometer mb |
| 20260506235044 | 62 | 310 | 3.0 | 10.0 | 0.00 | 0.00 | 0.00 | 82 | 1015.5 |
| 20260506234542 | 63 | 276 | 5.0 | 7.0 | 0.00 | 0.00 | 0.00 | 82 | 1015.2 |
| 20260506234039 | 63 | 60 | 2.0 | 11.0 | 0.00 | 0.00 | 0.00 | 82 | 1015.3 |
| 20260506233536 | 63 | 312 | 4.0 | 8.0 | 0.00 | 0.00 | 0.00 | 82 | 1015.7 |
| 20260506233033 | 62 | 345 | 5.0 | 11.0 | 0.00 | 0.00 | 0.00 | 82 | 1015.5 |
| 20260506232529 | 63 | 344 | 4.0 | 11.0 | 0.00 | 0.00 | 0.00 | 82 | 1015.1 |
| 20260506232025 | 63 | 7 | 2.0 | 7.0 | 0.00 | 0.00 | 0.00 | 82 | 1015.1 |
| 20260506231522 | 63 | 26 | 4.0 | 8.0 | 0.00 | 0.00 | 0.00 | 82 | 1015.4 |
| 20260506231020 | 63 | 292 | 5.0 | 6.0 | 0.00 | 0.00 | 0.00 | 82 | 1015.3 |
| 20260506230516 | 63 | 54 | 1.0 | 5.0 | 0.00 | 0.00 | 0.00 | 82 | 1015.2 |
| 20260506230014 | 62 | 346 | 4.0 | 9.0 | 0.00 | 0.00 | 0.00 | 83 | 1015.3 |
| 20260506225511 | 62 | 3 | 7.0 | 8.0 | 0.00 | 0.00 | 0.00 | 82 | 1015.4 |
| 20260506225007 | 62 | 26 | 8.0 | 8.0 | 0.00 | 0.00 | 0.00 | 82 | 1015.2 |
| 20260506224504 | 62 | 359 | 6.0 | 10.0 | 0.00 | 0.00 | 0.00 | 82 | 1015.4 |
| 20260506224000 | 62 | 356 | 2.0 | 10.0 | 0.00 | 0.00 | 0.00 | 82 | 1015.2 |
| 20260506223456 | 62 | 59 | 2.0 | 5.0 | 0.00 | 0.00 | 0.00 | 83 | 1015.4 |
| 20260506222953 | 62 | 5 | 4.0 | 10.0 | 0.00 | 0.00 | 0.00 | 82 | 1015.2 |
| 20260506222450 | 62 | 302 | 3.0 | 5.0 | 0.00 | 0.00 | 0.00 | 83 | 1015.2 |
| 20260506221946 | 62 | 2 | 8.0 | 11.0 | 0.00 | 0.00 | 0.00 | 83 | 1015.2 |
| 20260506221444 | 62 | 303 | 2.0 | 15.0 | 0.00 | 0.00 | 0.00 | 83 | 1015.0 |
| 20260506220942 | 62 | 293 | 6.0 | 11.0 | 0.00 | 0.00 | 0.00 | 83 | 1015.3 |
| 20260506220437 | 62 | 358 | 0.0 | 11.0 | 0.00 | 0.00 | 0.00 | 82 | 1015.1 |
| 20260506215934 | 62 | 3 | 9.0 | 11.0 | 0.00 | 0.00 | 0.00 | 83 | 1015.1 |
| 20260506215430 | 62 | 357 | 6.0 | 11.0 | 0.00 | 0.00 | 0.00 | 82 | 1015.4 |
| 20260506214926 | 62 | 9 | 4.0 | 11.0 | 0.00 | 0.00 | 0.00 | 81 | 1015.3 |
| 20260506214423 | 62 | 333 | 6.0 | 15.0 | 0.00 | 0.00 | 0.00 | 81 | 1015.4 |
| 20260506213921 | 63 | 336 | 4.0 | 12.0 | 0.00 | 0.00 | 0.00 | 81 | 1015.2 |
| 20260506213418 | 63 | 357 | 2.0 | 11.0 | 0.00 | 0.00 | 0.00 | 81 | 1015.0 |
| 20260506212915 | 63 | 308 | 4.0 | 13.0 | 0.00 | 0.00 | 0.00 | 81 | 1015.0 |
| 20260506212411 | 63 | 300 | 4.0 | 11.0 | 0.00 | 0.00 | 0.00 | 81 | 1015.1 |
| 20260506211906 | 63 | 300 | 3.0 | 13.0 | 0.00 | 0.00 | 0.00 | 81 | 1015.0 |
| 20260506211402 | 63 | 294 | 7.0 | 9.0 | 0.00 | 0.00 | 0.00 | 81 | 1015.2 |
| 20260506210900 | 63 | 359 | 9.0 | 13.0 | 0.00 | 0.00 | 0.00 | 81 | 1015.0 |
| 20260506210356 | 63 | 354 | 5.0 | 12.0 | 0.00 | 0.00 | 0.00 | 82 | 1015.1 |
| 20260506205854 | 63 | 345 | 6.0 | 13.0 | 0.00 | 0.00 | 0.00 | 81 | 1015.2 |
| 20260506205349 | 63 | 342 | 5.0 | 12.0 | 0.00 | 0.00 | 0.00 | 81 | 1015.1 |
| 20260506204846 | 63 | 346 | 8.0 | 10.0 | 0.00 | 0.00 | 0.00 | 82 | 1015.5 |
| 20260506204344 | 63 | 349 | 8.0 | 14.0 | 0.00 | 0.00 | 0.00 | 82 | 1015.6 |
| 20260506203841 | 63 | 308 | 6.0 | 15.0 | 0.00 | 0.00 | 0.00 | 81 | 1015.4 |
| 20260506203338 | 64 | 345 | 9.0 | 13.0 | 0.00 | 0.00 | 0.00 | 81 | 1015.4 |
| 20260506202835 | 64 | 318 | 6.0 | 16.0 | 0.00 | 0.00 | 0.00 | 81 | 1015.5 |
| 20260506202332 | 64 | 49 | 3.0 | 14.0 | 0.00 | 0.00 | 0.00 | 81 | 1015.5 |
| 20260506201828 | 65 | 309 | 8.0 | 11.0 | 0.00 | 0.00 | 0.00 | 81 | 1015.5 |
| 20260506201326 | 65 | 336 | 12.0 | 19.0 | 0.00 | 0.00 | 0.00 | 80 | 1015.2 |
| 20260506200823 | 65 | 358 | 6.0 | 16.0 | 0.00 | 0.00 | 0.00 | 80 | 1015.1 |
| 20260506200319 | 66 | 37 | 4.0 | 16.0 | 0.00 | 0.00 | 0.00 | 80 | 1015.1 |
| 20260506195815 | 66 | 306 | 7.0 | 10.0 | 0.00 | 0.00 | 0.00 | 81 | 1015.0 |
| 20260506195312 | 66 | 338 | 10.0 | 14.0 | 0.00 | 0.00 | 0.00 | 81 | 1015.0 |
| 20260506194809 | 67 | 288 | 6.0 | 14.0 | 0.00 | 0.00 | 0.00 | 81 | 1014.9 |
| 20260506194305 | 67 | 314 | 7.0 | 14.0 | 0.00 | 0.00 | 0.00 | 81 | 1014.8 |
| 20260506193803 | 68 | 14 | 7.0 | 8.0 | 0.00 | 0.00 | 0.00 | 81 | 1015.1 |
| 20260506193300 | 68 | 306 | 3.0 | 7.0 | 0.00 | 0.00 | 0.00 | 81 | 1014.8 |
| 20260506192756 | 68 | 21 | 2.0 | 5.0 | 0.00 | 0.00 | 0.00 | 83 | 1014.6 |
| 20260506192253 | 67 | 317 | 5.0 | 13.0 | 0.00 | 0.00 | 0.00 | 83 | 1015.0 |
| 20260506191750 | 67 | 348 | 6.0 | 14.0 | 0.00 | 0.00 | 0.00 | 83 | 1014.7 |
| 20260506191246 | 67 | 329 | 5.0 | 15.0 | 0.00 | 0.00 | 0.00 | 83 | 1015.0 |
| 20260506190744 | 68 | 342 | 6.0 | 15.0 | 0.00 | 0.00 | 0.00 | 83 | 1014.9 |
| 20260506190240 | 68 | 278 | 9.0 | 17.0 | 0.00 | 0.00 | 0.00 | 84 | 1014.7 |
| 20260506185737 | 68 | 254 | 9.0 | 17.0 | 0.00 | 0.00 | 0.00 | 84 | 1014.9 |
| 20260506185234 | 69 | 289 | 12.0 | 21.0 | 0.00 | 0.00 | 0.00 | 83 | 1015.0 |
| 20260506184731 | 70 | 283 | 9.0 | 22.0 | 0.00 | 0.00 | 0.00 | 82 | 1014.8 |
| 20260506184228 | 72 | 279 | 12.0 | 18.0 | 0.00 | 0.00 | 0.00 | 81 | 1014.7 |
| 20260506183725 | 74 | 292 | 9.0 | 12.0 | 0.00 | 0.00 | 0.00 | 80 | 1014.5 |
| 20260506183220 | 74 | 294 | 7.0 | 9.0 | 0.00 | 0.00 | 0.00 | 79 | 1014.5 |
| 20260506182718 | 75 | 283 | 6.0 | 8.0 | 0.00 | 0.00 | 0.00 | 78 | 1014.5 |
| 20260506182215 | 75 | 63 | 2.0 | 11.0 | 0.00 | 0.00 | 0.00 | 77 | 1014.3 |
| 20260506181713 | 75 | 61 | 3.0 | 11.0 | 0.00 | 0.00 | 0.00 | 77 | 1014.2 |
| 20260506181210 | 76 | 351 | 3.0 | 6.0 | 0.00 | 0.00 | 0.00 | 75 | 1014.2 |
| 20260506180707 | 76 | 315 | 3.0 | 3.0 | 0.00 | 0.00 | 0.00 | 74 | 1014.4 |
| 20260506180203 | 74 | 201 | 0.0 | 3.0 | 0.00 | 0.00 | 0.00 | 76 | 1014.5 |
| 20260506175659 | 75 | 115 | 2.0 | 6.0 | 0.00 | 0.00 | 0.00 | 75 | 1014.4 |
| 20260506175156 | 76 | 124 | 5.0 | 6.0 | 0.00 | 0.00 | 0.00 | 73 | 1014.5 |
| 20260506174649 | 76 | 95 | 0.0 | 7.0 | 0.00 | 0.00 | 0.00 | 75 | 1014.2 |
| 20260506174145 | 74 | 126 | 4.0 | 8.0 | 0.00 | 0.00 | 0.00 | 75 | 1014.1 |
| 20260506173643 | 73 | 135 | 0.0 | 7.0 | 0.00 | 0.00 | 0.00 | 76 | 1014.2 |
| 20260506173134 | 73 | 165 | 0.0 | 1.0 | 0.00 | 0.00 | 0.00 | 78 | 1014.4 |
| 20260506172631 | 71 | 114 | 3.0 | 5.0 | 0.00 | 0.00 | 0.00 | 78 | 1014.2 |
| 20260506172127 | 72 | 71 | 2.0 | 6.0 | 0.00 | 0.00 | 0.00 | 77 | 1014.2 |
| 20260506171625 | 71 | 90 | 2.0 | 6.0 | 0.00 | 0.00 | 0.00 | 79 | 1014.4 |
| 20260506171122 | 71 | 70 | 2.0 | 7.0 | 0.00 | 0.00 | 0.00 | 79 | 1014.5 |
| 20260506170619 | 70 | 71 | 4.0 | 7.0 | 0.00 | 0.00 | 0.00 | 81 | 1014.6 |
| 20260506170111 | 70 | 76 | 3.0 | 11.0 | 0.00 | 0.00 | 0.00 | 82 | 1014.5 |
| 20260506165610 | 69 | 53 | 0.0 | 8.0 | 0.00 | 0.00 | 0.00 | 83 | 1014.3 |
| 20260506165105 | 69 | 96 | 1.0 | 4.0 | 0.00 | 0.00 | 0.00 | 85 | 1014.4 |
| 20260506164603 | 69 | 90 | 0.0 | 3.0 | 0.00 | 0.00 | 0.00 | 86 | 1014.6 |
| 20260506164100 | 68 | 117 | 0.0 | 5.0 | 0.00 | 0.00 | 0.00 | 87 | 1014.7 |
| 20260506163555 | 67 | 90 | 2.0 | 7.0 | 0.00 | 0.00 | 0.00 | 87 | 1014.7 |
| 20260506163051 | 67 | 196 | 0.0 | 6.0 | 0.00 | 0.00 | 0.00 | 88 | 1014.7 |
| 20260506162548 | 64 | 53 | 4.0 | 5.0 | 0.00 | 0.00 | 0.00 | 87 | 1015.2 |
| 20260506162045 | 64 | 252 | 2.0 | 5.0 | 0.00 | 0.00 | 0.00 | 87 | 1015.3 |
| 20260506161543 | 64 | 114 | 2.0 | 9.0 | 0.00 | 0.00 | 0.00 | 87 | 1015.0 |
| 20260506161039 | 63 | 52 | 4.0 | 4.0 | 0.00 | 0.00 | 0.00 | 86 | 1016.2 |
| 20260506160537 | 63 | 2 | 3.0 | 9.0 | 0.00 | 0.00 | 0.00 | 86 | 1016.6 |
| 20260506160034 | 64 | 273 | 11.0 | 14.0 | 0.00 | 0.00 | 0.00 | 86 | 1017.2 |
| 20260506155532 | 64 | 315 | 9.0 | 14.0 | 0.00 | 0.00 | 0.00 | 86 | 1016.1 |
| 20260506153709 | 66 | 350 | 8.0 | 20.0 | 0.00 | 0.00 | 0.00 | 87 | 1014.9 |
| 20260506153207 | 66 | 0 | 3.0 | 21.0 | 0.00 | 0.00 | 0.00 | 87 | 1014.5 |
| 20260506152703 | 67 | 348 | 11.0 | 20.0 | 0.00 | 0.00 | 0.00 | 87 | 1014.9 |
| 20260506152201 | 67 | 307 | 7.0 | 24.0 | 0.00 | 0.00 | 0.00 | 87 | 1014.6 |
| 20260506151700 | 67 | 20 | 10.0 | 23.0 | 0.00 | 0.00 | 0.00 | 87 | 1014.7 |
| 20260506151156 | 68 | 14 | 10.0 | 17.0 | 0.00 | 0.00 | 0.00 | 86 | 1014.3 |
| 20260506150652 | 69 | 9 | 6.0 | 20.0 | 0.00 | 0.00 | 0.00 | 87 | 1014.5 |
| 20260506150150 | 70 | 18 | 7.0 | 19.0 | 0.00 | 0.00 | 0.00 | 86 | 1014.4 |
| 20260506145646 | 74 | 299 | 3.0 | 15.0 | 0.00 | 0.00 | 0.00 | 85 | 1014.2 |
| 20260506145143 | 77 | 106 | 0.0 | 3.0 | 0.00 | 0.00 | 0.00 | 88 | 1013.9 |
| 20260506144641 | 77 | 90 | 2.0 | 4.0 | 0.00 | 0.00 | 0.00 | 88 | 1013.6 |
| 20260506144137 | 77 | 113 | 3.0 | 6.0 | 0.00 | 0.00 | 0.00 | 88 | 1013.3 |
| 20260506143635 | 77 | 115 | 5.0 | 8.0 | 0.00 | 0.00 | 0.00 | 88 | 1012.7 |
| 20260506143133 | 77 | 120 | 10.0 | 10.0 | 0.00 | 0.00 | 0.00 | 88 | 1013.2 |
| 20260506142631 | 77 | 115 | 6.0 | 6.0 | 0.00 | 0.00 | 0.00 | 89 | 1012.8 |
| 20260506142129 | 77 | 117 | 5.0 | 6.0 | 0.00 | 0.00 | 0.00 | 89 | 1012.7 |
| 20260506141626 | 77 | 144 | 5.0 | 6.0 | 0.00 | 0.00 | 0.00 | 89 | 1012.5 |
| 20260506141125 | 77 | 110 | 2.0 | 5.0 | 0.00 | 0.00 | 0.00 | 89 | 1012.5 |
| 20260506140622 | 77 | 82 | 1.0 | 6.0 | 0.00 | 0.00 | 0.00 | 89 | 1012.5 |
| 20260506140119 | 76 | 108 | 5.0 | 6.0 | 0.00 | 0.00 | 0.00 | 90 | 1012.9 |
| 20260506135615 | 76 | 90 | 3.0 | 6.0 | 0.00 | 0.00 | 0.00 | 90 | 1012.8 |
| 20260506135112 | 76 | 99 | 4.0 | 7.0 | 0.00 | 0.00 | 0.00 | 90 | 1013.0 |
| 20260506134608 | 76 | 95 | 0.0 | 7.0 | 0.00 | 0.00 | 0.00 | 90 | 1012.7 |
| 20260506134104 | 76 | 121 | 0.0 | 8.0 | 0.00 | 0.00 | 0.00 | 90 | 1012.4 |
| 20260506133602 | 76 | 105 | 0.0 | 5.0 | 0.00 | 0.00 | 0.00 | 90 | 1012.5 |
| 20260506133059 | 76 | 124 | 3.0 | 5.0 | 0.00 | 0.00 | 0.00 | 90 | 1012.5 |
| 20260506132556 | 76 | 87 | 3.0 | 4.0 | 0.00 | 0.00 | 0.00 | 90 | 1012.5 |
| 20260506132053 | 76 | 120 | 0.0 | 5.0 | 0.00 | 0.00 | 0.00 | 91 | 1012.4 |
| 20260506131550 | 76 | 112 | 3.0 | 5.0 | 0.00 | 0.00 | 0.00 | 91 | 1012.6 |
| 20260506131046 | 76 | 113 | 2.0 | 8.0 | 0.00 | 0.00 | 0.00 | 91 | 1012.4 |
| 20260506130543 | 76 | 15 | 0.0 | 5.0 | 0.00 | 0.00 | 0.00 | 91 | 1012.0 |
| 20260506130041 | 76 | 98 | 1.0 | 5.0 | 0.00 | 0.00 | 0.00 | 91 | 1011.9 |
| 20260506125539 | 76 | 85 | 4.0 | 6.0 | 0.00 | 0.00 | 0.00 | 91 | 1011.8 |
| 20260506125036 | 76 | 115 | 2.0 | 7.0 | 0.00 | 0.00 | 0.00 | 91 | 1011.7 |
| 20260506124534 | 75 | 121 | 2.0 | 5.0 | 0.00 | 0.00 | 0.00 | 91 | 1011.9 |
| 20260506124032 | 75 | 83 | 3.0 | 8.0 | 0.00 | 0.00 | 0.00 | 91 | 1011.7 |
| 20260506123529 | 76 | 106 | 2.0 | 6.0 | 0.00 | 0.00 | 0.00 | 91 | 1011.6 |
| 20260506123027 | 75 | 102 | 2.0 | 5.0 | 0.00 | 0.00 | 0.00 | 92 | 1011.6 |
| 20260506122524 | 75 | 118 | 0.0 | 5.0 | 0.00 | 0.00 | 0.00 | 91 | 1011.6 |
| 20260506122022 | 75 | 103 | 1.0 | 4.0 | 0.00 | 0.00 | 0.00 | 91 | 1011.7 |
| 20260506121519 | 75 | 98 | 0.0 | 2.0 | 0.00 | 0.00 | 0.00 | 91 | 1011.6 |
| 20260506121015 | 75 | 90 | 0.0 | 2.0 | 0.00 | 0.00 | 0.00 | 91 | 1011.7 |
| 20260506120514 | 75 | 106 | 0.0 | 3.0 | 0.00 | 0.00 | 0.00 | 91 | 1011.8 |
| 20260506120010 | 75 | 114 | 3.0 | 3.0 | 0.00 | 0.00 | 0.00 | 91 | 1011.7 |
| 20260506115508 | 75 | 81 | 0.0 | 3.0 | 0.00 | 0.00 | 0.00 | 91 | 1011.4 |
| 20260506115007 | 75 | 94 | 3.0 | 3.0 | 0.00 | 0.00 | 0.00 | 91 | 1011.6 |
| 20260506114503 | 75 | 83 | 0.0 | 3.0 | 0.00 | 0.00 | 0.00 | 91 | 1011.3 |
| 20260506114002 | 75 | 79 | 3.0 | 3.0 | 0.00 | 0.00 | 0.00 | 91 | 1011.4 |
| 20260506113459 | 75 | 90 | 0.0 | 3.0 | 0.00 | 0.00 | 0.00 | 90 | 1011.5 |
| 20260506112956 | 75 | 105 | 0.0 | 3.0 | 0.00 | 0.00 | 0.00 | 90 | 1011.5 |
| 20260506112453 | 75 | 82 | 1.0 | 3.0 | 0.00 | 0.00 | 0.00 | 90 | 1011.8 |
| 20260506111950 | 75 | 68 | 0.0 | 3.0 | 0.00 | 0.00 | 0.00 | 90 | 1011.8 |
| 20260506111449 | 75 | 342 | 0.0 | 1.0 | 0.00 | 0.00 | 0.00 | 90 | 1011.6 |
| 20260506110945 | 75 | 99 | 0.0 | 0.0 | 0.00 | 0.00 | 0.00 | 90 | 1011.7 |
| 20260506110443 | 75 | 83 | 0.0 | 2.0 | 0.00 | 0.00 | 0.00 | 90 | 1011.7 |
| 20260506105939 | 75 | 294 | 0.0 | 2.0 | 0.00 | 0.00 | 0.00 | 90 | 1011.7 |
| 20260506105436 | 75 | 83 | 0.0 | 0.0 | 0.00 | 0.00 | 0.00 | 90 | 1011.7 |
| 20260506104933 | 76 | 99 | 0.0 | 1.0 | 0.00 | 0.00 | 0.00 | 90 | 1011.8 |
| 20260506104431 | 76 | 77 | 1.0 | 1.0 | 0.00 | 0.00 | 0.00 | 90 | 1011.7 |
| 20260506103929 | 76 | 200 | 0.0 | 1.0 | 0.00 | 0.00 | 0.00 | 90 | 1011.5 |
| 20260506103427 | 75 | 188 | 0.0 | 0.0 | 0.00 | 0.00 | 0.00 | 90 | 1011.5 |
| 20260506102923 | 76 | 188 | 0.0 | 0.0 | 0.00 | 0.00 | 0.00 | 89 | 1011.4 |
| 20260506102421 | 76 | 126 | 0.0 | 1.0 | 0.00 | 0.00 | 0.00 | 90 | 1011.3 |
| 20260506101918 | 76 | 209 | 0.0 | 0.0 | 0.00 | 0.00 | 0.00 | 89 | 1011.4 |
| 20260506101414 | 76 | 203 | 0.0 | 1.0 | 0.00 | 0.00 | 0.00 | 89 | 1011.2 |
| 20260506100912 | 76 | 154 | 0.0 | 3.0 | 0.00 | 0.00 | 0.00 | 89 | 1011.1 |
| 20260506100410 | 76 | 203 | 0.0 | 2.0 | 0.00 | 0.00 | 0.00 | 89 | 1011.2 |
| 20260506095908 | 76 | 233 | 3.0 | 3.0 | 0.00 | 0.00 | 0.00 | 89 | 1011.1 |
| 20260506095406 | 76 | 183 | 3.0 | 3.0 | 0.00 | 0.00 | 0.00 | 89 | 1011.0 |
| 20260506094902 | 76 | 206 | 0.0 | 5.0 | 0.00 | 0.00 | 0.00 | 89 | 1010.8 |
| 20260506094401 | 76 | 194 | 0.0 | 5.0 | 0.00 | 0.00 | 0.00 | 89 | 1010.8 |
| 20260506093858 | 76 | 195 | 2.0 | 7.0 | 0.00 | 0.00 | 0.00 | 88 | 1010.9 |
| 20260506093355 | 76 | 172 | 0.0 | 6.0 | 0.00 | 0.00 | 0.00 | 88 | 1010.9 |
| 20260506092853 | 76 | 194 | 4.0 | 6.0 | 0.00 | 0.00 | 0.00 | 88 | 1010.8 |
| 20260506092351 | 76 | 201 | 3.0 | 4.0 | 0.00 | 0.00 | 0.00 | 88 | 1010.6 |
| 20260506091847 | 76 | 151 | 5.0 | 8.0 | 0.00 | 0.00 | 0.00 | 88 | 1010.8 |
| 20260506091345 | 76 | 148 | 3.0 | 5.0 | 0.00 | 0.00 | 0.00 | 88 | 1010.9 |
| 20260506090842 | 77 | 173 | 1.0 | 5.0 | 0.00 | 0.00 | 0.00 | 88 | 1010.6 |
| 20260506090340 | 77 | 153 | 4.0 | 6.0 | 0.00 | 0.00 | 0.00 | 88 | 1010.5 |
| 20260506085836 | 76 | 205 | 6.0 | 7.0 | 0.00 | 0.00 | 0.00 | 88 | 1010.5 |
| 20260506085332 | 76 | 143 | 5.0 | 7.0 | 0.00 | 0.00 | 0.00 | 88 | 1010.2 |
| 20260506084829 | 77 | 149 | 6.0 | 8.0 | 0.00 | 0.00 | 0.00 | 87 | 1010.4 |
| 20260506084326 | 77 | 153 | 5.0 | 7.0 | 0.00 | 0.00 | 0.00 | 87 | 1010.4 |
| 20260506083823 | 77 | 127 | 2.0 | 6.0 | 0.00 | 0.00 | 0.00 | 87 | 1010.4 |
| 20260506083320 | 77 | 133 | 3.0 | 5.0 | 0.00 | 0.00 | 0.00 | 87 | 1010.4 |
| 20260506082818 | 77 | 144 | 0.0 | 5.0 | 0.00 | 0.00 | 0.00 | 87 | 1010.7 |
| 20260506082314 | 77 | 160 | 3.0 | 5.0 | 0.00 | 0.00 | 0.00 | 86 | 1010.7 |
| 20260506081810 | 77 | 140 | 3.0 | 6.0 | 0.00 | 0.00 | 0.00 | 87 | 1010.4 |
| 20260506081308 | 77 | 164 | 3.0 | 4.0 | 0.00 | 0.00 | 0.00 | 87 | 1010.5 |
| 20260506080806 | 77 | 139 | 5.0 | 7.0 | 0.00 | 0.00 | 0.00 | 86 | 1010.8 |
| 20260506080302 | 77 | 131 | 2.0 | 6.0 | 0.00 | 0.00 | 0.00 | 86 | 1010.5 |
| 20260506073246 | 77 | 154 | 3.0 | 11.0 | 0.00 | 0.00 | 0.00 | 87 | 1010.7 |
| 20260506072743 | 77 | 148 | 8.0 | 12.0 | 0.00 | 0.00 | 0.00 | 87 | 1011.1 |
| 20260506072240 | 77 | 153 | 9.0 | 14.0 | 0.00 | 0.00 | 0.00 | 87 | 1010.9 |
| 20260506071738 | 77 | 100 | 3.0 | 15.0 | 0.00 | 0.00 | 0.00 | 87 | 1011.0 |
| 20260506071236 | 77 | 150 | 7.0 | 11.0 | 0.00 | 0.00 | 0.00 | 87 | 1011.1 |
| 20260506070732 | 77 | 152 | 8.0 | 18.0 | 0.00 | 0.00 | 0.00 | 87 | 1010.9 |
| 20260506070229 | 77 | 171 | 2.0 | 10.0 | 0.00 | 0.00 | 0.00 | 87 | 1010.9 |
| 20260506062206 | 77 | 148 | 9.0 | 13.0 | 0.00 | 0.00 | 0.00 | 87 | 1010.9 |
| 20260506061702 | 77 | 145 | 8.0 | 10.0 | 0.00 | 0.00 | 0.00 | 87 | 1010.8 |
| 20260506061200 | 77 | 140 | 11.0 | 11.0 | 0.00 | 0.00 | 0.00 | 87 | 1010.9 |
| 20260506060659 | 77 | 137 | 5.0 | 11.0 | 0.00 | 0.00 | 0.00 | 87 | 1010.9 |
| 20260506060155 | 76 | 153 | 12.0 | 15.0 | 0.00 | 0.00 | 0.00 | 87 | 1010.6 |
| 20260506051127 | 77 | 154 | 6.0 | 13.0 | 0.00 | 0.00 | 0.00 | 87 | 1010.8 |
| 20260506050625 | 77 | 151 | 7.0 | 15.0 | 0.00 | 0.00 | 0.00 | 87 | 1010.8 |
| 20260506050122 | 77 | 148 | 2.0 | 12.0 | 0.00 | 0.00 | 0.00 | 87 | 1011.0 |
| 20260506045115 | 77 | 110 | 2.0 | 10.0 | 0.00 | 0.00 | 0.00 | 87 | 1011.0 |
| 20260506044613 | 77 | 139 | 7.0 | 10.0 | 0.00 | 0.00 | 0.00 | 87 | 1010.8 |
| 20260506044110 | 77 | 124 | 6.0 | 9.0 | 0.00 | 0.00 | 0.00 | 87 | 1010.7 |
| 20260506043607 | 77 | 145 | 7.0 | 11.0 | 0.00 | 0.00 | 0.00 | 87 | 1010.7 |
| 20260506043105 | 77 | 124 | 6.0 | 10.0 | 0.00 | 0.00 | 0.00 | 87 | 1010.9 |
| 20260506042604 | 77 | 157 | 7.0 | 8.0 | 0.00 | 0.00 | 0.00 | 86 | 1010.6 |
| 20260506042102 | 78 | 149 | 3.0 | 6.0 | 0.00 | 0.00 | 0.00 | 86 | 1011.0 |
| 20260506041600 | 78 | 145 | 4.0 | 7.0 | 0.00 | 0.00 | 0.00 | 86 | 1010.9 |
| 20260506041056 | 78 | 90 | 3.0 | 7.0 | 0.00 | 0.00 | 0.00 | 86 | 1010.7 |
| 20260506040554 | 78 | 139 | 4.0 | 9.0 | 0.00 | 0.00 | 0.00 | 86 | 1010.8 |
| 20260506040050 | 78 | 128 | 6.0 | 9.0 | 0.00 | 0.00 | 0.00 | 85 | 1010.6 |
| 20260506035547 | 78 | 142 | 7.0 | 9.0 | 0.00 | 0.00 | 0.00 | 85 | 1010.6 |
| 20260506035044 | 78 | 117 | 5.0 | 10.0 | 0.00 | 0.00 | 0.00 | 85 | 1010.4 |
| 20260506034542 | 78 | 116 | 4.0 | 9.0 | 0.00 | 0.00 | 0.00 | 85 | 1010.2 |
| 20260506034038 | 78 | 113 | 6.0 | 7.0 | 0.00 | 0.00 | 0.00 | 84 | 1010.3 |
| 20260506033536 | 78 | 108 | 3.0 | 9.0 | 0.00 | 0.00 | 0.00 | 84 | 1010.2 |
| 20260506033032 | 79 | 130 | 5.0 | 10.0 | 0.00 | 0.00 | 0.00 | 83 | 1010.2 |
| 20260506032530 | 78 | 93 | 3.0 | 8.0 | 0.00 | 0.00 | 0.00 | 83 | 1010.4 |
| 20260506032026 | 79 | 121 | 5.0 | 8.0 | 0.00 | 0.00 | 0.00 | 82 | 1010.2 |
| 20260506031524 | 80 | 99 | 2.0 | 6.0 | 0.00 | 0.00 | 0.00 | 82 | 1010.2 |
| 20260506031021 | 79 | 139 | 5.0 | 8.0 | 0.00 | 0.00 | 0.00 | 82 | 1010.1 |
| 20260506030519 | 79 | 141 | 5.0 | 7.0 | 0.00 | 0.00 | 0.00 | 82 | 1010.2 |
| 20260506030016 | 79 | 106 | 4.0 | 5.0 | 0.00 | 0.00 | 0.00 | 82 | 1009.8 |
| 20260506025513 | 80 | 129 | 7.0 | 8.0 | 0.00 | 0.00 | 0.00 | 81 | 1009.9 |
| 20260506025009 | 80 | 163 | 2.0 | 5.0 | 0.00 | 0.00 | 0.00 | 80 | 1009.8 |
| 20260506024506 | 80 | 160 | 3.0 | 7.0 | 0.00 | 0.00 | 0.00 | 81 | 1009.9 |
| 20260506024002 | 80 | 125 | 5.0 | 6.0 | 0.00 | 0.00 | 0.00 | 81 | 1009.6 |
| 20260506023458 | 80 | 153 | 4.0 | 7.0 | 0.00 | 0.00 | 0.00 | 80 | 1009.5 |
| 20260506022955 | 80 | 138 | 3.0 | 6.0 | 0.00 | 0.00 | 0.00 | 80 | 1009.6 |
| 20260506022453 | 80 | 135 | 4.0 | 7.0 | 0.00 | 0.00 | 0.00 | 80 | 1009.4 |
| 20260506021951 | 80 | 123 | 5.0 | 6.0 | 0.00 | 0.00 | 0.00 | 79 | 1009.2 |
| 20260506021448 | 81 | 157 | 3.0 | 7.0 | 0.00 | 0.00 | 0.00 | 79 | 1009.0 |
| 20260506020945 | 80 | 142 | 2.0 | 5.0 | 0.00 | 0.00 | 0.00 | 79 | 1009.0 |
| 20260506020443 | 80 | 168 | 2.0 | 10.0 | 0.00 | 0.00 | 0.00 | 79 | 1009.1 |
| 20260506015940 | 81 | 114 | 4.0 | 7.0 | 0.00 | 0.00 | 0.00 | 78 | 1008.9 |
| 20260506015437 | 81 | 114 | 5.0 | 6.0 | 0.00 | 0.00 | 0.00 | 78 | 1008.8 |
| 20260506014934 | 81 | 147 | 4.0 | 7.0 | 0.00 | 0.00 | 0.00 | 77 | 1008.7 |
| 20260506014431 | 81 | 144 | 5.0 | 8.0 | 0.00 | 0.00 | 0.00 | 77 | 1008.5 |
| 20260506013927 | 81 | 119 | 8.0 | 9.0 | 0.00 | 0.00 | 0.00 | 77 | 1008.5 |
| 20260506013426 | 81 | 113 | 8.0 | 8.0 | 0.00 | 0.00 | 0.00 | 76 | 1008.7 |
| 20260506012921 | 82 | 135 | 4.0 | 6.0 | 0.00 | 0.00 | 0.00 | 76 | 1008.5 |
| 20260506012418 | 82 | 140 | 5.0 | 6.0 | 0.00 | 0.00 | 0.00 | 75 | 1008.6 |
| 20260506011915 | 82 | 123 | 3.0 | 7.0 | 0.00 | 0.00 | 0.00 | 75 | 1008.7 |
| 20260506011412 | 82 | 135 | 5.0 | 10.0 | 0.00 | 0.00 | 0.00 | 75 | 1008.7 |
| 20260506010909 | 82 | 143 | 9.0 | 10.0 | 0.00 | 0.00 | 0.00 | 75 | 1008.6 |
| 20260506010408 | 82 | 135 | 5.0 | 9.0 | 0.00 | 0.00 | 0.00 | 74 | 1008.6 |
| 20260506005904 | 83 | 149 | 3.0 | 5.0 | 0.00 | 0.00 | 0.00 | 74 | 1008.5 |
| 20260506005402 | 83 | 137 | 4.0 | 6.0 | 0.00 | 0.00 | 0.00 | 74 | 1008.4 |
| 20260506004856 | 83 | 100 | 3.0 | 7.0 | 0.00 | 0.00 | 0.00 | 74 | 1008.5 |
| 20260506004355 | 83 | 125 | 3.0 | 5.0 | 0.00 | 0.00 | 0.00 | 72 | 1008.7 |
| 20260506003851 | 83 | 135 | 6.0 | 8.0 | 0.00 | 0.00 | 0.00 | 71 | 1008.5 |
| 20260506003347 | 84 | 137 | 4.0 | 7.0 | 0.00 | 0.00 | 0.00 | 71 | 1008.7 |
| 20260506002844 | 84 | 128 | 3.0 | 5.0 | 0.00 | 0.00 | 0.00 | 71 | 1008.8 |
| 20260506002340 | 83 | 130 | 4.0 | 7.0 | 0.00 | 0.00 | 0.00 | 71 | 1008.7 |
| 20260506001835 | 84 | 141 | 8.0 | 8.0 | 0.00 | 0.00 | 0.00 | 71 | 1008.8 |
| 20260506001333 | 84 | 149 | 4.0 | 6.0 | 0.00 | 0.00 | 0.00 | 71 | 1008.6 |
| 20260506000830 | 84 | 110 | 3.0 | 6.0 | 0.00 | 0.00 | 0.00 | 72 | 1008.6 |
| 20260506000329 | 84 | 129 | 3.0 | 8.0 | 0.00 | 0.00 | 0.00 | 72 | 1008.6 |
| 20260505235824 | 84 | 153 | 6.0 | 8.0 | 0.00 | 0.00 | 0.00 | 71 | 1008.7 |
| 20260505235322 | 84 | 140 | 5.0 | 8.0 | 0.00 | 0.00 | 0.00 | 71 | 1008.6 |